Weather History for KBUF - December, 2012

Change the Weather History Date:

Friday, December 28, 2012

  Actual Average Record
Temperature  
Mean Temperature 25 °F 27 °F  
Max Temperature 28 °F 33 °F 67 °F (1982)
Min Temperature 22 °F 21 °F -3 °F (1960)
Degree Days  
Heating Degree Days 40 38  
Month to date heating degree days 770 967  
Since 1 July heating degree days 2049 2300  
Cooling Degree Days 0 0  
Month to date cooling degree days 0 0  
Year to date cooling degree days 875 544  
Moisture  
Dew Point 21 °F    
Average Humidity 87    
Maximum Humidity 92    
Minimum Humidity 81    
Precipitation  
Precipitation 0.01 in 0.13 in 1.81 in (1922)
Month to date precipitation 3.41 3.52  
Year to date precipitation 32.57 40.11  
Snow  
Snow 0.10 in 1.10 in 26.20 in (2001)
Month to date snowfall 16.7 24.3  
Since 1 July snowfall 19.1 33.1  
Snow Depth 10.00 in    
Sea Level Pressure  
Sea Level Pressure 30.10 in    
Wind  
Wind Speed 5 mph (West)    
Max Wind Speed 14 mph    
Max Gust Speed 17 mph    
Visibility 7 miles    
Events Snow    
T = Trace of Precipitation, MM = Missing Value Source: NWS Daily Summary

Daily Weather History Graph

Daily Weather History Graph

Search for Another Location

Airport or City:

Trip Planner

Search our weather history database for the weather conditions in past years. The results will help you decide how hot, cold, wet, or windy it might be!

Date:

Astronomy

Dec. 28, 2012 Rise Set
Actual Time 7:45 AM EST 4:48 PM EST
Civil Twilight 7:13 AM EST 5:20 PM EST
Nautical Twilight 6:37 AM EST 5:56 PM EST
Astronomical Twilight 6:02 AM EST 6:30 PM EST
Moon 5:24 PM EST (12/28) 7:37 AM EST (12/28)
Length of Visible Light 10h 07m
Length of Day
9h 02m
Full, 100% of the Moon is Illuminated
Dec 28
Full
Jan 4
Last Quarter
Jan 11
New
Jan 18
First Quarter
Jan 26
Full

Hourly Weather History & Observations

Time (EST) Temp. Windchill Dew Point Humidity Pressure Visibility Wind Dir Wind Speed Gust Speed Precip Events Conditions
12:05 AM 24.8 °F 16.9 °F 21.2 °F 86% 30.05 in 2.0 mi West 6.9 mph - 0.01 in Snow Light Snow
12:44 AM 24.8 °F 15.3 °F 21.2 °F 86% 30.04 in 5.0 mi WNW 9.2 mph - 0.01 in Snow Light Snow
12:54 AM 24.1 °F 16.0 °F 21.0 °F 88% 30.08 in 7.0 mi WNW 6.9 mph - 0.01 in Snow Light Snow
1:30 AM 24.8 °F 19.1 °F 21.2 °F 86% 30.05 in 2.0 mi WNW 4.6 mph - 0.00 in Snow Light Snow
1:54 AM 24.1 °F 17.0 °F 21.9 °F 91% 30.09 in 1.5 mi WNW 5.8 mph - 0.00 in Snow Light Snow
2:23 AM 24.8 °F 16.9 °F 21.2 °F 86% 30.07 in 4.0 mi WNW 6.9 mph - 0.00 in Snow Light Snow
2:54 AM 24.1 °F 17.0 °F 21.0 °F 88% 30.11 in 4.0 mi West 5.8 mph - 0.00 in Snow Light Snow
3:49 AM 21.2 °F 14.9 °F 19.4 °F 93% 30.07 in 10.0 mi WNW 4.6 mph - 0.00 in Snow Light Snow
3:54 AM 21.9 °F 15.7 °F 19.9 °F 92% 30.11 in 10.0 mi West 4.6 mph - 0.00 in Snow Light Snow
4:07 AM 23.0 °F 13.9 °F 19.4 °F 86% 30.08 in 10.0 mi West 8.1 mph - 0.00 in Snow Light Snow
4:36 AM 23.0 °F 15.8 °F 19.4 °F 86% 30.09 in 2.5 mi West 5.8 mph - 0.00 in Snow Light Snow
4:54 AM 23.0 °F 15.8 °F 19.9 °F 88% 30.12 in 3.0 mi West 5.8 mph - 0.00 in Snow Light Snow
5:54 AM 23.0 °F 15.8 °F 19.9 °F 88% 30.14 in 8.0 mi WSW 5.8 mph - 0.00 in Snow Light Snow
6:54 AM 24.1 °F 17.0 °F 19.9 °F 84% 30.14 in 10.0 mi WNW 5.8 mph - 0.00 in   Overcast
7:28 AM 24.8 °F 19.1 °F 19.4 °F 80% 30.10 in 10.0 mi WSW 4.6 mph - N/A   Overcast
7:54 AM 25.0 °F 19.3 °F 21.0 °F 85% 30.14 in 10.0 mi West 4.6 mph - N/A   Overcast
8:54 AM 25.0 °F 19.3 °F 21.0 °F 85% 30.15 in 9.0 mi West 4.6 mph - 0.00 in Snow Light Snow
9:32 AM 24.8 °F 19.1 °F 21.2 °F 86% 30.11 in 6.0 mi West 4.6 mph - 0.00 in Snow Light Freezing Drizzle
9:51 AM 24.8 °F 17.9 °F 21.2 °F 86% 30.12 in 6.0 mi West 5.8 mph - 0.00 in Snow Light Snow
9:54 AM 24.1 °F 18.2 °F 21.9 °F 91% 30.16 in 6.0 mi West 4.6 mph - 0.00 in Snow Light Snow
10:54 AM 25.0 °F 18.1 °F 21.9 °F 88% 30.15 in 5.0 mi West 5.8 mph - 0.00 in Snow Light Snow
11:28 AM 24.8 °F 19.1 °F 21.2 °F 86% 30.10 in 3.0 mi West 4.6 mph - 0.00 in Snow Light Freezing Drizzle
11:54 AM 24.8 °F 17.9 °F 21.2 °F 86% 30.09 in 3.0 mi WSW 5.8 mph - N/A Snow Light Freezing Drizzle
12:01 PM 24.8 °F 16.9 °F 21.2 °F 86% 30.09 in 2.5 mi WSW 6.9 mph - 0.00 in Snow Light Freezing Drizzle
12:15 PM 24.8 °F 16.9 °F 21.2 °F 86% 30.09 in 1.5 mi WSW 6.9 mph - 0.00 in Snow Light Freezing Drizzle
12:23 PM 24.8 °F 17.9 °F 21.2 °F 86% 30.08 in 2.5 mi SW 5.8 mph - 0.00 in Snow Light Freezing Drizzle
12:31 PM 24.8 °F 14.6 °F 21.2 °F 86% 30.08 in 3.0 mi WSW 10.4 mph - 0.00 in Snow Light Freezing Drizzle
12:39 PM 24.8 °F 14.6 °F 21.2 °F 86% 30.08 in 5.0 mi WSW 10.4 mph - 0.00 in Snow Light Snow
12:54 PM 25.0 °F 14.8 °F 21.0 °F 85% 30.12 in 5.0 mi WSW 10.4 mph - 0.00 in Snow Light Snow
1:24 PM 24.8 °F 14.6 °F 19.4 °F 80% 30.10 in 6.0 mi West 10.4 mph - 0.00 in Snow Light Snow
1:54 PM 26.1 °F 16.2 °F 21.0 °F 81% 30.14 in 9.0 mi West 10.4 mph - 0.00 in   Overcast
2:54 PM 26.1 °F 18.4 °F 21.0 °F 81% 30.15 in 10.0 mi West 6.9 mph - N/A   Overcast
3:32 PM 26.6 °F 20.0 °F 21.2 °F 80% 30.10 in 10.0 mi West 5.8 mph - N/A   Overcast
3:54 PM 27.0 °F 21.6 °F 21.0 °F 78% 30.13 in 10.0 mi West 4.6 mph - N/A   Overcast
4:54 PM 27.0 °F - 21.0 °F 78% 30.07 in 10.0 mi Calm Calm - N/A   Mostly Cloudy
5:54 PM 26.1 °F 21.9 °F 21.0 °F 81% 30.08 in 10.0 mi South 3.5 mph - N/A   Mostly Cloudy
6:54 PM 25.0 °F 19.3 °F 21.0 °F 85% 30.08 in 9.0 mi South 4.6 mph - N/A   Mostly Cloudy
7:54 PM 25.0 °F - 21.9 °F 88% 30.09 in 7.0 mi Calm Calm - N/A   Mostly Cloudy
8:30 PM 24.8 °F - 21.2 °F 86% 30.05 in 7.0 mi Calm Calm - N/A   Mostly Cloudy
8:54 PM 24.1 °F - 21.9 °F 91% 30.07 in 6.0 mi Calm Calm - N/A   Mostly Cloudy
9:54 PM 25.0 °F 18.1 °F 21.9 °F 88% 30.05 in 7.0 mi ESE 5.8 mph - N/A   Overcast
10:54 PM 26.1 °F 20.5 °F 23.0 °F 88% 30.05 in 8.0 mi ENE 4.6 mph - N/A   Overcast
11:54 PM 27.0 °F 23.0 °F 23.0 °F 85% 30.03 in 9.0 mi NE 3.5 mph - N/A   Overcast